Regional Weather Roundup
Issued by NWS Raleigh/Durham, NC

Home | Current Version | Previous Version | Text Only | Print | Product List | Glossary On
Versions: 1 2 3 4 5 6 7 8 9 10 11 12 13 14 15 16 17 18 19 20 21 22 23 24 25 26 27 28 29 30 31 32 33 34 35 36 37 38 39 40 41 42 43 44 45 46 47 48 49 50
000
ASUS42 KRAH 011210
RWRRAH
NORTH CAROLINA WEATHER ROUNDUP
NATIONAL WEATHER SERVICE RALEIGH NC
800 AM EDT WED JUL 01 2015

NOTE: "FAIR" INDICATES FEW OR NO CLOUDS BELOW 12,000 FEET WITH NO
SIGNIFICANT WEATHER AND/OR OBSTRUCTIONS TO VISIBILITY.

NCZ001-053-055-056-065-067-011300-
WESTERN NORTH CAROLINA

CITY           SKY/WX    TMP DP  RH WIND       PRES   REMARKS
ASHEVILLE      MOSUNNY   64  61  90 W3        30.06R
JEFFERSON      MOSUNNY   66  55  67 W17       30.07R
HICKORY        SUNNY     67  64  90 N5        29.99R
RUTHERFORDTON  NOT AVBL
MOUNT AIRY     SUNNY     68  64  85 NW3       30.00R
$$

NCZ021-022-025-041-071-084-088-011300-
CENTRAL NORTH CAROLINA

CITY           SKY/WX    TMP DP  RH WIND       PRES   REMARKS
CHARLOTTE      CLOUDY    70  67  90 SW6       29.99R
GREENSBORO     PTSUNNY   69  66  90 SW7       29.96R
WINSTON-SALEM  SUNNY     69  63  81 SW3       29.98R
RALEIGH-DURHAM PTSUNNY   70  68  93 SW8       29.96R FOG
FORT BRAGG     CLOUDY    72  69  90 W7        29.96R
FAYETTEVILLE   CLOUDY    72  70  93 SW6       29.96R
$$

NCZ011-015-027-028-043-044-047-080-103-011300-
NORTHEASTERN NORTH CAROLINA

CITY           SKY/WX    TMP DP  RH WIND       PRES   REMARKS
ROANOKE RAPIDS PTSUNNY   68  68 100 SW9       29.93S
ROCKY MT-WILSO PTSUNNY   72  68  87 SW8       29.95R
GREENVILLE     CLOUDY    73  70  88 W9        29.97S
WASHINGTON     PTSUNNY   73  67  83 W13       29.95R
ELIZABETH CITY NOT AVBL
MANTEO         MOSUNNY   79  71  76 SW13      29.92S
CAPE HATTERAS  MOSUNNY   77  72  84 W12       29.95S
$$

NCZ078-087-090-091-093-098-101-011300-
SOUTHEASTERN NORTH CAROLINA

CITY           SKY/WX    TMP DP  RH WIND       PRES   REMARKS
LUMBERTON      CLOUDY    73  69  87 SW6       29.97R
GOLDSBORO      CLOUDY    72  69  92 SW8       29.95R
KENANSVILLE    CLOUDY    71  67  89 W6        29.99R
NEW BERN       SUNNY     74  68  81 SW9       29.97R
CHERRY POINT   SUNNY     76  67  73 SW12      29.96S
BEAUFORT       SUNNY     78  69  73 SW12      29.96S
JACKSONVILLE   SUNNY     73  67  81 W13       29.96R
WILMINGTON     SUNNY     75  68  78 SW13      29.98R
$$




USA.gov is the U.S. government's official web portal to all federal, state and local government web resources and services.